TimeCDT,TemperatureF,Dew PointF,Humidity,Sea Level PressureIn,VisibilityMPH,Wind Direction,Wind SpeedMPH,Gust SpeedMPH,PrecipitationIn,Events,Conditions,WindDirDegrees,DateUTC
12:13 AM,55.8,46.9,72,29.96,10.0,NNW,8.1,-,N/A,,Overcast,330,2013-07-28 05:13:00
12:33 AM,55.6,46.8,72,29.96,10.0,NW,6.9,-,N/A,,Mostly Cloudy,320,2013-07-28 05:33:00
12:53 AM,56.1,46.8,71,29.96,10.0,NNW,9.2,-,N/A,,Overcast,330,2013-07-28 05:53:00
1:13 AM,56.5,46.6,69,29.96,10.0,NNW,9.2,-,N/A,,Overcast,330,2013-07-28 06:13:00
1:33 AM,56.8,46.0,67,29.96,10.0,NNW,10.4,-,N/A,,Overcast,340,2013-07-28 06:33:00
1:53 AM,56.8,46.0,67,29.96,10.0,NNW,10.4,-,N/A,,Overcast,340,2013-07-28 06:53:00
2:13 AM,56.1,45.7,68,29.96,10.0,NNW,9.2,-,N/A,,Mostly Cloudy,330,2013-07-28 07:13:00
2:33 AM,55.8,45.7,69,29.96,10.0,NW,8.1,-,N/A,,Mostly Cloudy,320,2013-07-28 07:33:00
2:53 AM,55.8,45.7,69,29.96,10.0,NW,6.9,-,N/A,,Mostly Cloudy,320,2013-07-28 07:53:00
3:13 AM,54.9,45.9,72,29.96,10.0,NNW,5.8,-,N/A,,Scattered Clouds,340,2013-07-28 08:13:00
3:33 AM,54.5,45.9,73,29.96,10.0,NNW,6.9,-,N/A,,Clear,330,2013-07-28 08:33:00
3:53 AM,54.5,46.0,73,29.96,10.0,NNW,5.8,-,N/A,,Scattered Clouds,340,2013-07-28 08:53:00
4:13 AM,54.5,46.4,74,29.97,10.0,NNW,5.8,-,N/A,,Overcast,340,2013-07-28 09:13:00
4:33 AM,55.2,46.4,72,29.97,10.0,NNW,5.8,-,N/A,,Overcast,340,2013-07-28 09:33:00
4:53 AM,55.4,46.6,72,29.98,10.0,NNW,9.2,-,N/A,,Overcast,330,2013-07-28 09:53:00
5:13 AM,54.9,46.4,73,29.97,10.0,North,6.9,-,N/A,,Overcast,350,2013-07-28 10:13:00
5:33 AM,54.7,46.6,74,29.98,10.0,NNW,5.8,-,N/A,,Overcast,340,2013-07-28 10:33:00
5:53 AM,54.7,46.8,75,29.98,10.0,NNW,5.8,-,N/A,,Overcast,340,2013-07-28 10:53:00
6:13 AM,54.7,46.6,74,29.98,10.0,NNW,8.1,-,N/A,,Overcast,340,2013-07-28 11:13:00
6:33 AM,54.7,46.6,74,29.98,10.0,North,8.1,-,N/A,,Overcast,350,2013-07-28 11:33:00
6:53 AM,55.0,46.4,73,29.98,10.0,North,5.8,-,N/A,,Overcast,10,2013-07-28 11:53:00
7:13 AM,55.4,46.2,71,29.99,10.0,North,8.1,-,N/A,,Overcast,360,2013-07-28 12:13:00
7:33 AM,55.4,45.9,70,29.98,10.0,North,9.2,-,N/A,,Overcast,10,2013-07-28 12:33:00
7:53 AM,55.8,46.2,70,29.98,10.0,North,8.1,-,N/A,,Mostly Cloudy,350,2013-07-28 12:53:00
8:13 AM,55.8,46.4,71,30.00,10.0,North,9.2,-,N/A,,Mostly Cloudy,10,2013-07-28 13:13:00
8:33 AM,55.8,46.6,71,29.99,10.0,North,6.9,-,N/A,,Overcast,10,2013-07-28 13:33:00
8:53 AM,56.8,47.1,70,29.99,10.0,NNW,4.6,-,N/A,,Overcast,340,2013-07-28 13:53:00
9:13 AM,57.6,47.1,68,29.99,10.0,NNW,6.9,-,N/A,,Overcast,340,2013-07-28 14:13:00
9:33 AM,57.9,47.1,67,29.99,10.0,WNW,8.1,-,N/A,,Overcast,300,2013-07-28 14:33:00
9:53 AM,58.5,47.5,67,29.99,10.0,NW,8.1,18.4,N/A,,Overcast,320,2013-07-28 14:53:00
10:13 AM,59.5,47.7,65,29.99,10.0,NW,6.9,-,N/A,,Mostly Cloudy,310,2013-07-28 15:13:00
10:33 AM,60.8,47.8,62,29.99,10.0,NW,6.9,-,N/A,,Scattered Clouds,320,2013-07-28 15:33:00
10:53 AM,61.3,47.7,61,29.99,10.0,NW,9.2,-,N/A,,Scattered Clouds,310,2013-07-28 15:53:00
11:13 AM,63.3,48.0,57,29.99,10.0,NW,6.9,-,N/A,,Scattered Clouds,320,2013-07-28 16:13:00
11:33 AM,63.1,47.8,57,29.99,10.0,NW,8.1,-,N/A,,Scattered Clouds,310,2013-07-28 16:33:00
11:53 AM,64.2,48.0,56,30.00,10.0,WNW,6.9,-,N/A,,Scattered Clouds,300,2013-07-28 16:53:00
12:13 PM,65.7,48.2,53,30.00,10.0,NW,6.9,-,N/A,,Scattered Clouds,320,2013-07-28 17:13:00
12:33 PM,66.6,48.2,52,30.00,10.0,NW,9.2,-,N/A,,Clear,320,2013-07-28 17:33:00
12:53 PM,68.2,49.5,51,29.99,10.0,WNW,10.4,-,N/A,,Scattered Clouds,300,2013-07-28 17:53:00
1:13 PM,68.4,48.4,49,29.99,10.0,NW,8.1,-,N/A,,Clear,310,2013-07-28 18:13:00
1:33 PM,69.8,48.7,47,30.00,10.0,WNW,10.4,17.3,N/A,,Scattered Clouds,300,2013-07-28 18:33:00
1:53 PM,70.3,48.7,46,30.00,10.0,NW,10.4,-,N/A,,Mostly Cloudy,310,2013-07-28 18:53:00
2:13 PM,69.3,48.9,48,30.00,10.0,WNW,5.8,-,N/A,,Scattered Clouds,290,2013-07-28 19:13:00
2:33 PM,69.8,48.7,47,30.00,10.0,NNW,9.2,-,N/A,,Mostly Cloudy,330,2013-07-28 19:33:00
2:53 PM,70.2,50.0,49,30.00,10.0,NW,9.2,16.1,N/A,,Mostly Cloudy,310,2013-07-28 19:53:00
3:13 PM,70.7,49.1,46,29.99,10.0,NW,9.2,-,N/A,,Scattered Clouds,320,2013-07-28 20:13:00
3:33 PM,71.2,49.3,46,29.99,10.0,NW,8.1,-,N/A,,Scattered Clouds,310,2013-07-28 20:33:00
3:53 PM,71.2,49.1,45,29.99,10.0,West,10.4,-,N/A,,Scattered Clouds,280,2013-07-28 20:53:00
4:13 PM,72.7,48.7,43,29.98,10.0,NW,9.2,-,N/A,,Mostly Cloudy,310,2013-07-28 21:13:00
4:33 PM,73.4,49.5,43,29.98,10.0,NW,6.9,-,N/A,,Mostly Cloudy,320,2013-07-28 21:33:00
4:53 PM,73.4,49.8,43,29.98,10.0,North,4.6,-,N/A,,Scattered Clouds,10,2013-07-28 21:53:00
5:13 PM,71.6,50.0,46,29.98,10.0,North,8.1,-,N/A,,Scattered Clouds,350,2013-07-28 22:13:00
5:33 PM,73.6,50.0,43,29.99,10.0,North,8.1,-,N/A,,Clear,350,2013-07-28 22:33:00
5:53 PM,73.8,49.1,42,29.99,10.0,NNW,9.2,-,N/A,,Clear,340,2013-07-28 22:53:00
6:13 PM,72.5,48.9,43,29.99,10.0,NNW,10.4,-,N/A,,Clear,340,2013-07-28 23:13:00
6:33 PM,72.5,48.9,43,29.99,10.0,North,8.1,-,N/A,,Clear,360,2013-07-28 23:33:00
6:53 PM,73.2,49.6,43,30.00,10.0,North,8.1,-,N/A,,Clear,350,2013-07-28 23:53:00
7:13 PM,72.9,50.0,44,30.00,10.0,NNE,9.2,-,N/A,,Clear,20,2013-07-29 00:13:00
7:33 PM,72.0,50.5,47,30.01,10.0,NNE,6.9,-,N/A,,Clear,20,2013-07-29 00:33:00
7:53 PM,71.1,51.4,50,30.01,10.0,North,6.9,-,N/A,,Clear,10,2013-07-29 00:53:00
8:13 PM,70.0,51.8,52,30.02,10.0,NNE,8.1,-,N/A,,Clear,20,2013-07-29 01:13:00
8:33 PM,68.9,52.2,55,30.02,10.0,NNE,5.8,-,N/A,,Clear,30,2013-07-29 01:33:00
8:53 PM,68.0,52.2,57,30.03,10.0,NNE,4.6,-,N/A,,Clear,30,2013-07-29 01:53:00
9:13 PM,67.5,51.8,57,30.03,10.0,NNE,3.5,-,N/A,,Clear,30,2013-07-29 02:13:00
9:33 PM,66.9,51.8,58,30.05,10.0,Calm,Calm,-,N/A,,Clear,0,2013-07-29 02:33:00
9:53 PM,66.2,51.8,60,30.05,10.0,Calm,Calm,-,N/A,,Clear,0,2013-07-29 02:53:00
10:13 PM,65.1,52.2,63,30.05,10.0,Calm,Calm,-,N/A,,Clear,0,2013-07-29 03:13:00
10:33 PM,63.7,52.3,67,30.05,10.0,Calm,Calm,-,N/A,,Clear,0,2013-07-29 03:33:00
10:53 PM,62.2,52.9,71,30.06,10.0,Calm,Calm,-,N/A,,Clear,0,2013-07-29 03:53:00
11:13 PM,61.2,53.6,76,30.06,10.0,Calm,Calm,-,N/A,,Clear,0,2013-07-29 04:13:00
11:33 PM,61.0,53.2,76,30.07,10.0,Calm,Calm,-,N/A,,Clear,0,2013-07-29 04:33:00
11:53 PM,60.3,53.6,79,30.07,10.0,Calm,Calm,-,N/A,,Clear,0,2013-07-29 04:53:00